• In Hungary
  • List of Countries
  • For 7 days
  • Water Temperature
  • Satellite Maps
  • Weather Map
  • News
  • Weather Widgets
  • user-avatar
    Login

    Hourly Weather Biskira

    Today, 15 October, Monday

    Time Temperature Precipitation Wind Pressure Humidity
    00:00 +26°C° 0 mm 6 mps 749 mmHg 45%
    01:00 +26°C° 0 mm 6 mps 749 mmHg 44%
    02:00 +26°C° 0 mm 7 mps 749 mmHg 44%
    03:00 +26°C° 0 mm 7 mps 749 mmHg 44%
    04:00 +24°C° 0.1 mm 6 mps 749 mmHg 45%
    05:00 +25°C° 0.1 mm 5 mps 749 mmHg 45%
    06:00 +25°C° 0 mm 5 mps 749 mmHg 46%
    07:00 +25°C° 0.7 mm 5 mps 749 mmHg 46%
    08:00 +26°C° 0.7 mm 4 mps 749 mmHg 46%
    09:00 +26°C° 0.7 mm 4 mps 750 mmHg 45%
    10:00 +26°C° 0.8 mm 3 mps 750 mmHg 47%
    11:00 +26°C° 0.8 mm 3 mps 750 mmHg 48%
    12:00 +26°C° 0 mm 2 mps 750 mmHg 50%
    13:00 +27°C° 0.7 mm 2 mps 750 mmHg 50%
    14:00 +27°C° 0.7 mm 2 mps 750 mmHg 50%
    15:00 +27°C° 0.7 mm 2 mps 749 mmHg 50%
    16:00 +26°C° 0.9 mm 3 mps 749 mmHg 54%
    17:00 +26°C° 0.9 mm 3 mps 749 mmHg 58%
    18:00 +25°C° 0.9 mm 3 mps 750 mmHg 61%
    19:00 +25°C° 0.8 mm 3 mps 750 mmHg 61%
    20:00 +25°C° 0.8 mm 3 mps 750 mmHg 61%
    21:00 +25°C° 0.8 mm 3 mps 750 mmHg 61%
    22:00 +25°C° 0.6 mm 3 mps 750 mmHg 61%
    23:00 +25°C° 0.6 mm 2 mps 750 mmHg 62%

    Tomorrow, 16 October, Tuesday

    Time Temperature Precipitation Wind Pressure Humidity
    00:00 +25°C° 0.6 mm 2 mps 750 mmHg 62%
    01:00 +25°C° 0.7 mm 2 mps 750 mmHg 62%
    02:00 +25°C° 0.7 mm 3 mps 750 mmHg 62%
    03:00 +24°C° 0.7 mm 3 mps 750 mmHg 62%
    04:00 +23°C° 1.5 mm 4 mps 750 mmHg 64%
    05:00 +23°C° 1.5 mm 4 mps 750 mmHg 65%
    06:00 +22°C° 1.5 mm 5 mps 750 mmHg 66%
    07:00 +23°C° 0.4 mm 6 mps 750 mmHg 61%
    08:00 +24°C° 0.4 mm 6 mps 751 mmHg 56%
    09:00 +26°C° 0.4 mm 6 mps 751 mmHg 51%
    10:00 +27°C° 0 mm 6 mps 751 mmHg 49%
    11:00 +28°C° 0 mm 6 mps 750 mmHg 47%
    12:00 +28°C° 0 mm 6 mps 750 mmHg 44%
    13:00 +28°C° 0 mm 6 mps 750 mmHg 43%
    14:00 +28°C° 0 mm 6 mps 749 mmHg 42%
    15:00 +28°C° 0 mm 5 mps 749 mmHg 41%
    16:00 +28°C° 0 mm 4 mps 749 mmHg 44%
    17:00 +27°C° 0 mm 3 mps 749 mmHg 46%
    18:00 +27°C° 0 mm 2 mps 749 mmHg 48%
    19:00 +26°C° 0.3 mm 3 mps 749 mmHg 50%
    20:00 +26°C° 0.3 mm 4 mps 749 mmHg 52%
    21:00 +25°C° 0.3 mm 5 mps 750 mmHg 54%
    22:00 +25°C° 0.1 mm 5 mps 749 mmHg 56%
    23:00 +23°C° 0.1 mm 5 mps 749 mmHg 58%

    Day after tomorrow, 17 October, Wednesday

    Time Temperature Precipitation Wind Pressure Humidity
    00:00 +23°C° 0.1 mm 6 mps 749 mmHg 61%
    01:00 +23°C° 0.3 mm 6 mps 749 mmHg 62%
    02:00 +22°C° 0.3 mm 5 mps 748 mmHg 63%
    03:00 +22°C° 0.3 mm 5 mps 748 mmHg 64%
    04:00 +22°C° 1.2 mm 5 mps 748 mmHg 66%
    05:00 +22°C° 1.2 mm 5 mps 747 mmHg 68%
    06:00 +22°C° 1.2 mm 6 mps 747 mmHg 70%
    07:00 +22°C° 1.4 mm 6 mps 747 mmHg 66%
    08:00 +23°C° 1.4 mm 7 mps 747 mmHg 63%
    09:00 +24°C° 1.4 mm 7 mps 747 mmHg 59%
    10:00 +26°C° 0.4 mm 7 mps 747 mmHg 55%
    11:00 +27°C° 0.4 mm 7 mps 746 mmHg 52%
    12:00 +27°C° 0.4 mm 7 mps 746 mmHg 48%
    13:00 +27°C° 1.6 mm 7 mps 745 mmHg 51%
    14:00 +27°C° 1.6 mm 7 mps 744 mmHg 53%
    15:00 +26°C° 1.6 mm 7 mps 744 mmHg 55%
    16:00 +26°C° 1.4 mm 6 mps 744 mmHg 57%
    17:00 +24°C° 1.4 mm 6 mps 744 mmHg 58%
    18:00 +24°C° 1.4 mm 6 mps 744 mmHg 60%
    19:00 +24°C° 0.6 mm 6 mps 744 mmHg 60%
    20:00 +24°C° 0.6 mm 6 mps 745 mmHg 61%
    21:00 +23°C° 0.6 mm 6 mps 745 mmHg 61%
    22:00 +23°C° 0.3 mm 6 mps 745 mmHg 62%
    23:00 +23°C° 0.3 mm 6 mps 744 mmHg 63%

    18 October, Thursday

    Time Temperature Precipitation Wind Pressure Humidity
    00:00 +23°C° 0.3 mm 6 mps 744 mmHg 64%
    01:00 +22°C° 0.1 mm 7 mps 744 mmHg 64%
    02:00 +22°C° 0.1 mm 7 mps 743 mmHg 65%
    03:00 +22°C° 0.1 mm 7 mps 743 mmHg 66%
    04:00 +22°C° 0 mm 7 mps 743 mmHg 67%
    05:00 +21°C° 0 mm 7 mps 743 mmHg 67%
    06:00 +21°C° 0 mm 7 mps 743 mmHg 68%
    07:00 +22°C° 0 mm 7 mps 743 mmHg 63%
    08:00 +23°C° 0 mm 6 mps 743 mmHg 58%
    09:00 +26°C° 0 mm 6 mps 744 mmHg 53%
    10:00 +26°C° 0 mm 6 mps 743 mmHg 50%
    11:00 +27°C° 0 mm 5 mps 743 mmHg 47%
    12:00 +28°C° 0 mm 4 mps 743 mmHg 45%
    13:00 +28°C° 0 mm 4 mps 743 mmHg 44%
    14:00 +28°C° 0 mm 4 mps 743 mmHg 43%
    15:00 +28°C° 0 mm 4 mps 743 mmHg 43%
    16:00 +28°C° 0 mm 4 mps 743 mmHg 46%
    17:00 +27°C° 0 mm 4 mps 743 mmHg 49%
    18:00 +26°C° 0 mm 4 mps 744 mmHg 52%
    19:00 +26°C° 0 mm 3 mps 744 mmHg 54%
    20:00 +26°C° 0 mm 3 mps 745 mmHg 57%
    21:00 +25°C° 0 mm 2 mps 746 mmHg 59%
    22:00 +25°C° 0 mm 2 mps 746 mmHg 60%
    23:00 +24°C° 0 mm 2 mps 746 mmHg 61%

    19 October, Friday

    Time Temperature Precipitation Wind Pressure Humidity
    00:00 +24°C° 0 mm 2 mps 746 mmHg 63%
    01:00 +24°C° 0 mm 2 mps 746 mmHg 64%
    02:00 +23°C° 0 mm 2 mps 747 mmHg 65%
    03:00 +22°C° 0 mm 3 mps 747 mmHg 66%
    04:00 +22°C° 0 mm 3 mps 747 mmHg 67%
    05:00 +21°C° 0 mm 3 mps 748 mmHg 67%
    06:00 +21°C° 0 mm 3 mps 748 mmHg 68%
    07:00 +22°C° 0 mm 3 mps 749 mmHg 63%
    08:00 +24°C° 0 mm 3 mps 749 mmHg 58%
    09:00 +26°C° 0 mm 3 mps 750 mmHg 53%
    10:00 +26°C° 0 mm 2 mps 750 mmHg 48%
    11:00 +27°C° 0 mm 2 mps 750 mmHg 43%
    12:00 +28°C° 0 mm 1 mps 750 mmHg 39%
    13:00 +29°C° 0 mm 1 mps 750 mmHg 37%
    14:00 +29°C° 0 mm 1 mps 749 mmHg 35%
    15:00 +29°C° 0 mm 1 mps 749 mmHg 33%
    16:00 +29°C° 0 mm 1 mps 750 mmHg 36%
    17:00 +28°C° 0 mm 1 mps 750 mmHg 40%
    18:00 +27°C° 0 mm 1 mps 751 mmHg 44%
    19:00 +27°C° 0 mm 1 mps 751 mmHg 45%
    20:00 +24°C° 0 mm 0 mps 752 mmHg 47%
    21:00 +24°C° 0 mm 0 mps 752 mmHg 48%
    22:00 +26°C° 0 mm 1 mps 752 mmHg 48%
    23:00 +25°C° 0 mm 1 mps 752 mmHg 48%

    20 October, Saturday

    Time Temperature Precipitation Wind Pressure Humidity
    00:00 +25°C° 0 mm 1 mps 752 mmHg 47%
    01:00 +25°C° 0 mm 1 mps 752 mmHg 48%
    02:00 +24°C° 0 mm 1 mps 752 mmHg 49%
    03:00 +24°C° 0 mm 2 mps 752 mmHg 49%
    04:00 +24°C° 0 mm 2 mps 753 mmHg 50%
    05:00 +24°C° 0 mm 2 mps 753 mmHg 50%
    06:00 +24°C° 0 mm 2 mps 753 mmHg 51%
    07:00 +25°C° 0 mm 3 mps 753 mmHg 50%
    08:00 +26°C° 0 mm 4 mps 754 mmHg 48%
    09:00 +27°C° 0 mm 5 mps 754 mmHg 47%
    10:00 +28°C° 0 mm 5 mps 754 mmHg 45%
    11:00 +29°C° 0 mm 5 mps 754 mmHg 43%
    12:00 +30°C° 0 mm 6 mps 753 mmHg 41%
    13:00 +30°C° 0 mm 5 mps 753 mmHg 41%
    14:00 +30°C° 0 mm 5 mps 753 mmHg 40%
    15:00 +30°C° 0 mm 5 mps 753 mmHg 39%
    16:00 +29°C° 0 mm 4 mps 753 mmHg 42%
    17:00 +28°C° 0 mm 4 mps 753 mmHg 46%
    18:00 +27°C° 0 mm 3 mps 753 mmHg 49%
    19:00 +27°C° 0 mm 3 mps 753 mmHg 50%
    20:00 +27°C° 0 mm 2 mps 754 mmHg 52%
    21:00 +26°C° 0 mm 2 mps 754 mmHg 54%
    22:00 +26°C° 0 mm 2 mps 754 mmHg 55%
    23:00 +25°C° 0 mm 3 mps 754 mmHg 57%
    Show more